Hayfield, Middle Canyon, Santa Catalina Island Weather observations

Data are for 10 minute period ending at time listed.
 Day   Time   Solar   Ave.   Ave.  Ave.  Vector    Max.   Stn.    Total
  of    of     Rad.   Air    Rel.  Wind   Wind     Wind   Baro.  Precip. 
Year   Day            Temp.  Hum.  Speed  Dir.     Gust   Pres.          
2014   (PST)   W/m2    F      %     mph   deg.      mph    mb.     in.   
-------------------------------------------------------------------------
 244    4:00    0.0    56  100.0     2     90.0     3.2    999.0   0.00
 244    4:10    0.0    56  100.0     1     95.4     3.2    999.0   0.00
 244    4:20    0.0    57  100.0     1     90.1     2.7    999.0   0.00
 244    4:30    0.0    58  100.0     1     98.9     3.8    999.0   0.00
 244    4:40    0.0    60  100.0     1    114.0     3.8    999.0   0.00
 244    4:50    0.0    62  100.0     3    120.3     6.0    999.0   0.00
 244    5:00    0.0    62  100.0     1    126.9     3.8    999.0   0.00
 244    5:10    0.0    62  100.0     2    131.3     5.5    999.0   0.00
 244    5:20    0.0    63  100.0     3    121.8     6.0    999.0   0.00
 244    5:30    0.0    63   99.5     2    128.4     5.5    999.0   0.00
 244    5:40    0.0    63   99.1     2    138.4     4.4    999.0   0.00
 244    5:50    0.0    63   98.7     2    103.6     5.5    999.0   0.00
 244    6:00    0.0    63   98.3     1    124.3     3.2    999.0   0.00
 244    6:10    0.0    63   98.0     0    134.6     2.1    999.0   0.00
 244    6:20    0.5    64   98.0     0     96.2     3.8    999.0   0.00
 244    6:30    1.5    64   97.7     1     92.6     3.8    999.0   0.00
 244    6:40    3.9    64   97.2     2     94.3     6.0    999.0   0.00
 244    6:50    7.6    64   96.7     2    121.5     4.9    999.0   0.00
 244    7:00   13.1    65   96.3     2    114.2     7.2    999.0   0.00
 244    7:10   23.2    65   95.7     3     98.4     8.3    999.0   0.00
 244    7:20   33.9    66   94.9     3     71.6     7.7    999.0   0.00
 244    7:30   48.8    66   94.1     3     90.2     6.6    999.0   0.00
 244    7:40   55.0    66   93.6     3    120.7     7.7    999.0   0.00
 244    7:50   82.7    66   92.9     4     96.4     7.7    999.0   0.00
 244    8:00   91.5    67   91.7     4     87.0    10.5    999.0   0.00
 244    8:10  113.5    67   90.9     3     92.7     7.7    999.0   0.00
 244    8:20  138.0    68   89.7     4    101.2     8.3    999.0   0.00
 244    8:30  113.4    68   89.0     4     82.2     7.7    999.0   0.00
 244    8:40  195.7    69   88.4     3     78.1     8.3    999.0   0.00
 244    8:50  162.9    70   87.2     4     96.8     7.7    999.0   0.00
 244    9:00  192.0    70   85.9     4     79.0     8.3    999.0   0.00
 244    9:10  277.8    71   84.3     4     87.8     7.7    999.0   0.00
 244    9:20  334.9    72   82.5     2     99.4     7.7    999.0   0.00
 244    9:30  353.0    72   79.9     3    127.8     6.6    999.0   0.00
 244    9:40  372.3    73   79.1     3     67.4     9.4    999.0   0.00
 244    9:50  390.1    73   77.9     3     69.3     7.2    999.0   0.00
 244   10:00  407.4    74   75.8     2    103.6     7.7    999.0   0.00
 244   10:10  427.0    75   72.4     3    147.1     7.2    999.0   0.00
 244   10:20  443.1    76   73.0     2    114.6     6.6    999.0   0.00
 244   10:30  457.7    75   75.2     5    178.5     8.8    999.0   0.00
 244   10:40  474.1    74   77.9     6    190.4    10.5    999.0   0.00
 244   10:50  487.5    74   76.7     5    184.6    10.5    999.0   0.00
 244   11:00  499.4    74   78.0     5    193.9     9.4    999.0   0.00
 244   11:10  512.6    75   76.8     5    206.0    10.0    999.0   0.00
 244   11:20  525.3    76   74.3     4    233.3     8.8    999.0   0.00
 244   11:30  536.5    77   72.5     4    302.6     9.4    999.0   0.00
 244   11:40  546.3    77   71.4     4    302.1    10.0    999.0   0.00
 244   11:50  556.1    77   71.1     5    276.5     8.8    999.0   0.00
 244   12:00  561.9    77   71.2     5    272.8    10.0    999.0   0.00
 244   12:10  566.4    77   71.3     5    282.7     9.4    999.0   0.00
 244   12:20  572.0    78   70.9     4    271.2    10.5    999.0   0.00
 244   12:30  575.5    78   71.0     5    288.7    10.0    999.0   0.00
 244   12:40  579.1    78   71.2     4    264.1    11.1    999.0   0.00
 244   12:50  581.0    78   69.5     3    250.6     9.4    999.0   0.00
 244   13:00  581.5    79   68.6     4    254.8     8.3    999.0   0.00
 244   13:10  580.9    79   68.3     5    281.1    10.5    999.0   0.00
 244   13:20  579.2    78   69.8     6    285.3    10.0    999.0   0.00
 244   13:30  576.1    78   69.4     6    268.5    10.5    999.0   0.00
 244   13:40  572.4    78   69.4     5    286.9    10.5    999.0   0.00
 244   13:50  567.3    78   69.2     6    290.0    11.1    999.0   0.00
 244   14:00  560.7    78   70.6     6    278.6    10.5    999.0   0.00
 244   14:10  553.1    78   70.4     6    273.3     9.4    999.0   0.00
 244   14:20  543.9    79   69.3     6    282.7    12.2    999.0   0.00
 244   14:30  534.6    78   69.7     5    289.0     8.8    999.0   0.00
 244   14:40  524.1    78   70.2     5    286.3    11.1    999.0   0.00
 244   14:50  512.0    78   71.2     6    275.9    11.6    999.0   0.00
 244   15:00  498.6    78   71.4     6    287.0    11.1    999.0   0.00
 244   15:10  484.3    78   71.4     5    286.8    10.5    999.0   0.00
 244   15:20  470.1    78   71.4     6    278.4    11.1    999.0   0.00
 244   15:30  455.2    77   72.4     5    281.0     9.4    999.0   0.00
 244   15:40  438.7    78   72.0     5    284.5    11.6    999.0   0.00
 244   15:50  421.2    77   72.5     5    284.6     8.8    999.0   0.00
 244   16:00  403.0    78   72.4     5    283.0    10.0    999.0   0.00
 244   16:10  384.2    77   72.7     5    276.5     9.4    999.0   0.00
 244   16:20  364.4    77   73.6     5    289.6     8.8    999.0   0.00
 244   16:30  344.5    77   74.0     5    278.7     8.3    999.0   0.00
 244   16:40  324.5    76   74.7     5    274.8     9.4    999.0   0.00
 244   16:50  303.4    77   74.2     4    277.2     8.3    999.0   0.00
 244   17:00  281.8    76   74.9     4    283.2     8.3    999.0   0.00
 244   17:10  260.0    76   75.0     4    279.1     7.2    999.0   0.00
 244   17:20  238.5    77   74.8     4    276.9     7.2    999.0   0.00
 244   17:30  216.6    76   74.8     4    285.6     7.7    999.0   0.00
 244   17:40  194.3    76   76.4     4    284.6     7.7    999.0   0.00
 244   17:50  171.6    75   76.7     5    286.1     7.7    999.0   0.00
 244   18:00  150.1    75   77.1     4    281.9     8.8    999.0   0.00
 244   18:10  129.9    74   75.4     3    281.3     7.2    999.0   0.00
 244   18:20  108.5    74   73.7     4    281.6     8.3    999.0   0.00
 244   18:30   86.4    74   75.0     4    283.4     8.3    999.0   0.00
 244   18:40   67.2    73   76.3     4    279.6     7.2    999.0   0.00
 244   18:50   44.7    72   78.3     4    267.3     8.8    999.0   0.00
 244   19:00   18.4    71   80.6     4    260.1     8.8    999.0   0.00
 244   19:10    6.5    70   83.1     3    259.7     7.7    999.0   0.00
 244   19:20    3.1    70   85.9     3    263.1     7.2    999.0   0.00
 244   19:30    1.0    69   88.6     3    269.0     5.5    999.0   0.00
 244   19:40    0.1    68   90.6     3    263.7     5.5    999.0   0.00
 244   19:50    0.0    68   92.0     2    255.0     3.8    999.0   0.00
 244   20:00    0.0    67   93.2     2    255.9     3.2    999.0   0.00
 244   20:10    0.0    66   93.8     0    264.2     1.6    999.0   0.00
 244   20:20    0.0    66   94.4     0    176.9     1.6    999.0   0.00
 244   20:30    0.0    64   94.9     1    170.6     2.1    999.0   0.00
 244   20:40    0.0    63   95.2     1    170.3     2.7    999.0   0.00
 244   20:50    0.0    62   95.5     1    170.3     2.1    999.0   0.00
 244   21:00    0.0    62   95.8     1    170.1     2.1    999.0   0.00
 244   21:10    0.0    61   96.0     0    170.0     2.7    999.0   0.00
 244   21:20    0.0    61   96.4     0    170.0     2.1    999.0   0.00
 244   21:30    0.0    60   96.6     0    170.0     2.1    999.0   0.00
 244   21:40    0.0    60   96.8     0    170.0     2.1    999.0   0.00
 244   21:50    0.0    59   97.1     0    170.0     1.6    999.0   0.00
 244   22:00    0.0    59   97.6     1    108.6     3.2    999.0   0.00
 244   22:10    0.0    59   97.8     1     88.9     2.7    999.0   0.00
 244   22:20    0.0    58   98.2     0     91.7     2.1    999.0   0.00
 244   22:30    0.0    58   98.4     0     93.0     2.1    999.0   0.00
 244   22:40    0.0    58   98.7     1    117.9     3.2    999.0   0.00
 244   22:50    0.0    57   98.9     0    163.9     2.1    999.0   0.00
 244   23:00    0.0    57   99.2     0    163.6     1.6    999.0   0.00
 244   23:10    0.0    56   99.4     0    163.0     2.7    999.0   0.00
 244   23:20    0.0    56   99.6     0    149.3     3.2    999.0   0.00
 244   23:30    0.0    56   99.9     0    143.9     2.1    999.0   0.00
 244   23:40    0.0    57  100.0     1    115.7     4.4    999.0   0.00
 244   23:50    0.0    57  100.0     0    138.4     2.7    999.0   0.00
 245    0:00    0.0    58  100.0     1    129.5     3.2    999.0   0.00
 245    0:10    0.0    59   99.9     1     89.2     2.7    999.0   0.00
 245    0:20    0.0    59   99.7     1     87.9     2.7    999.0   0.00
 245    0:30    0.0    59   99.5     1    147.1     2.7    999.0   0.00
 245    0:40    0.0    60   99.2     0    136.9     2.7    999.0   0.00
 245    0:50    0.0    60   99.1     0    158.0     2.1    999.0   0.00
 245    1:00    0.0    60   98.7     0    158.0     1.6    999.0   0.00
 245    1:10    0.0    61   98.4     0      0.0     0.0    999.0   0.00
 245    1:20    0.0    61   98.3     0      0.0     0.0    999.0   0.00
 245    1:30    0.0    61   98.1     0      0.0     0.0    999.0   0.00
 245    1:40    0.0    62   97.8     0      0.0     0.0    999.0   0.00
 245    1:50    0.0    62   97.7     0      0.0     0.0    999.0   0.00
 245    2:00    0.0    62   97.5     0      0.0     0.0    999.0   0.00
 245    2:10    0.0    63   97.2     0      0.0     0.0    999.0   0.00
 245    2:20    0.0    63   97.1     0      0.0     0.0    999.0   0.00
 245    2:30    0.0    63   97.0     0      0.0     0.0    999.0   0.00
 245    2:40    0.0    64   96.9     0      0.0     0.0    999.0   0.00
 245    2:50    0.0    64   96.8     0      0.0     0.0    999.0   0.00
 245    3:00    0.0    64   96.8     0    171.5     1.0    999.0   0.00
 245    3:10    0.0    65   96.9     0      0.0     0.0    999.0   0.00
 245    3:20    0.0    65   97.0     0    222.8     1.0    999.0   0.00
 245    3:30    0.0    65   97.0     0    251.3     1.0    999.0   0.00
 245    3:40    0.0    64   97.0     0    250.5     1.0    999.0   0.00
 245    3:50    0.0    64   97.0     0      0.0     0.0    999.0   0.00

Return to Hayfield, Middle Canyon graphs page.


Western Regional Climate Center,wrcc@dri.edu